This is the latest recevied weather packets stored in our database for station/object DG4CB-13. If no packets are shown the sender has not sent any weather packets the latest 10 day(s).
| Time | Temp. | Humidity | Pressure | Rain* | Wind** | Luminosity | Snow |
|---|---|---|---|---|---|---|---|
| 1777630200 | 20° C | 33% | 1026 hPa | - | - | - | - |
| 1777629600 | 19.44° C | 34% | 1026.1 hPa | - | - | - | - |
| 1777628999 | 18.89° C | 34% | 1026.2 hPa | - | - | - | - |
| 1777628400 | 18.33° C | 33% | 1026.2 hPa | - | - | - | - |
| 1777627800 | 18.33° C | 34% | 1026.3 hPa | - | - | - | - |
| 1777627200 | 17.78° C | 34% | 1026.3 hPa | - | - | - | - |
| 1777626600 | 17.78° C | 36% | 1026.4 hPa | - | - | - | - |
| 1777626000 | 17.22° C | 37% | 1026.5 hPa | - | - | - | - |
| 1777625400 | 16.67° C | 39% | 1026.5 hPa | - | - | - | - |
| 1777624800 | 16.11° C | 42% | 1026.5 hPa | - | - | - | - |
| 1777624200 | 15.56° C | 44% | 1026.6 hPa | - | - | - | - |
| 1777623599 | 15° C | 45% | 1026.7 hPa | - | - | - | - |
| 1777623000 | 14.44° C | 46% | 1026.5 hPa | - | - | - | - |
| 1777622399 | 13.33° C | 46% | 1026.4 hPa | - | - | - | - |
| 1777621800 | 12.78° C | 47% | 1026.7 hPa | - | - | - | - |
| 1777621199 | 12.22° C | 50% | 1026.7 hPa | - | - | - | - |
| 1777620600 | 11.67° C | 54% | 1026.7 hPa | - | - | - | - |
| 1777620000 | 11.11° C | 56% | 1026.8 hPa | - | - | - | - |
| 1777619400 | 10° C | 57% | 1026.9 hPa | - | - | - | - |
| 1777618799 | 9.44° C | 60% | 1026.9 hPa | - | - | - | - |
| 1777618199 | 8.89° C | 61% | 1026.8 hPa | - | - | - | - |
| 1777617600 | 8.33° C | 62% | 1026.8 hPa | - | - | - | - |
| 1777617000 | 7.78° C | 66% | 1027 hPa | - | - | - | - |
| 1777616400 | 6.67° C | 66% | 1026.9 hPa | - | - | - | - |
| 1777615800 | 6.67° C | 66% | 1027 hPa | - | - | - | - |
* Rain since midnight (hover to see other rain measurements)
** Current wind speed in m/s (hover to see current wind gust speed)